[[{"header":{"parameterUnit":"m.s-1","parameterCategory":1,"la1":30.2991,"la2":30.254,"lo1":-89.0895,"lo2":-89.0444,"dy":0.0017,"dx":0.0017,"nx":28,"ny":28,"refTime":"2024-06-27T03:00:00:Z","depth":0,"parameterNumber":2,"parameterNumberName":"U-component_of_WINDS"},"data":[0,0,0,0,0,0,0,0,0,0,0,0,0,0,0,0,0,0,0,0,0,0,0,0,0,0,0,0,0,0,0,0,0,0,0,0,0,0,0,0,0,0,0,0,0,0,0,0,0,0,0,0,0,0,0,0,0,0,4.0341,4.0343,0,4.0478,4.048,4.0482,4.0456,4.0453,4.0451,4.0448,4.0587,4.0593,4.0599,0,0,0,0,0,0,0,0,0,0,0,0,0,4.0052,4.0058,4.0341,4.0343,4.0344,4.0478,4.048,4.0482,4.0456,4.0453,4.045,4.0447,4.0585,4.0592,4.06,0,0,0,0,0,0,0,0,0,0,0,0,0,4.0182,4.006,4.0341,4.0348,4.035,4.0478,4.048,4.0482,4.0457,4.0453,4.0449,4.0446,4.0583,4.0592,4.0601,4.073,0,0,4.0628,4.0632,0,0,0,0,0,0,0,0,4.0175,4.0193,4.0345,4.0347,4.035,4.0446,4.0429,4.0565,4.0458,4.0416,4.0448,4.0444,4.0543,4.0555,4.0589,4.0736,4.0742,4.0629,4.0634,4.0638,4.0641,0,0,0,0,0,0,0,4.0166,4.0187,4.0395,4.0347,4.035,4.0343,4.0357,4.0455,4.0499,4.0419,4.0418,4.0434,4.0544,4.058,4.0592,4.0744,4.0629,4.0637,4.0642,4.0646,4.1,4.1004,0,0,0,0,0,0,4.0155,4.018,4.0391,4.0399,4.0252,4.0351,4.0367,4.0419,4.0497,4.0506,4.0437,4.0433,4.0567,4.0582,4.0597,4.075,4.0638,4.0647,4.0652,4.0996,4.1001,4.1005,0,0,0,0,0,0,4.0149,4.0174,4.0385,4.0289,4.0315,4.036,4.0418,4.0424,4.046,4.0511,4.0518,4.0467,4.0565,4.0584,4.0696,4.0754,4.0651,4.0659,4.0991,4.0997,4.1003,4.1059,0,0,0,0,0,0,4.0141,4.0172,4.0223,4.0291,4.0321,4.0484,4.0422,4.0429,4.0476,4.0471,4.0541,4.0549,4.0563,4.0683,4.0705,4.0765,4.0666,4.0986,4.0994,4.1001,4.1052,4.1066,4.1078,0,0,0,0,0,4.0131,4.0234,4.0226,4.0251,4.0385,4.0487,4.0504,4.0519,4.0481,4.0531,4.0563,4.0547,4.0745,4.0694,4.0719,4.0783,4.0982,4.0992,4.1,4.1046,4.1063,4.1078,0,0,0,0,0,0,4.0172,4.0243,4.0235,4.0363,4.0419,4.0483,4.0546,4.0538,4.0605,4.0598,4.0613,4.0629,4.0741,4.0774,4.0716,4.091,4.0858,4.0872,4.0884,4.0901,4.0914,4.0902,4.0673,0,0,0,0,0,4.0197,4.0274,4.0332,4.0439,4.0468,4.0502,4.0547,4.0554,4.0612,4.0636,4.0676,4.0733,4.0807,4.0857,4.0929,4.1057,4.107,4.1113,4.1126,4.1136,4.1148,4.1214,4.1232,4.1035,4.1035,4.1035,0,0,4.0247,4.0295,4.0344,4.0449,4.0493,4.0571,4.0523,4.0609,4.0666,4.0649,4.0756,4.0788,4.0852,4.0971,4.1026,4.1001,4.1205,4.1148,4.1156,4.1162,4.1225,4.1243,4.126,4.1041,4.104,4.1039,0,0,4.0378,4.0424,4.0517,4.0562,4.0629,4.0651,4.0673,4.0738,4.0758,4.0866,4.0853,4.0921,4.1051,4.1096,4.1135,4.1281,4.1266,4.1304,4.1371,4.1435,4.1451,4.1464,4.1512,4.153,4.1316,4.1316,4.1316,0,4.0432,4.0551,4.0566,4.0652,4.0696,4.0685,4.0777,4.082,4.0907,4.0937,4.0909,4.1068,4.1111,4.1239,4.1274,4.1308,4.1331,4.1295,4.1448,4.1461,4.1474,4.152,4.1539,4.132,4.1319,4.1319,4.1318,0,4.0611,4.0694,4.076,4.0844,4.0897,4.0986,4.1012,4.1063,4.1065,4.1089,4.1197,4.1247,4.1327,4.1359,4.1362,4.1486,4.1468,4.1444,4.1392,4.1497,4.154,4.1558,4.1325,4.1324,4.1322,4.1322,0,0,4.0772,4.0862,4.0885,4.0921,4.0994,4.1057,4.1144,4.1222,4.1264,4.1324,4.1395,4.1504,4.1481,4.1526,4.1533,4.159,4.1697,4.1558,4.156,4.1579,4.1832,4.1847,4.1868,4.1689,4.1693,4.1695,4.1825,0,4.0907,4.1061,4.1076,4.1213,4.1286,4.1275,4.1351,4.1402,4.1427,4.1492,4.1519,4.1594,4.156,4.1586,4.1642,4.1672,4.1747,4.1663,4.1752,4.1755,4.1733,4.1891,4.1908,4.2029,4.1843,4.1846,4.1848,0,4.1085,4.1149,4.1293,4.1352,4.1383,4.1451,4.1521,4.1585,4.1642,4.1656,4.1705,4.1704,4.1791,4.1738,4.1856,4.1798,4.1836,4.1856,4.1861,4.1867,4.1806,4.1898,4.2068,4.2084,4.1875,4.1873,4.1871,0,4.1183,4.1306,4.1406,4.1438,4.1511,4.1557,4.1589,4.1643,4.1688,4.175,4.1778,4.185,4.1888,4.1942,4.1959,4.192,4.2076,4.2025,4.2087,4.2086,4.2118,4.2115,4.2292,4.2148,4.2148,4.2147,4.2147,0,4.133,4.1417,4.1451,4.1512,4.1609,4.1625,4.172,4.1749,4.1796,4.1862,4.1858,4.1919,4.194,4.2005,4.2019,4.2112,4.2131,4.2142,4.2144,4.2141,4.2139,4.2163,4.2154,4.2152,4.2151,4.215,4.2149,0,4.1454,4.1481,4.1589,4.1648,4.1665,4.1733,4.1782,4.1841,4.1864,4.1947,4.1967,4.2003,4.2078,4.2102,4.2194,4.2203,4.231,4.2307,4.2291,4.229,4.2349,4.2342,4.2546,4.2572,4.2414,4.2415,4.2417,0,4.1544,4.1611,4.1676,4.172,4.1754,4.1825,4.1869,4.1887,4.1934,4.2002,4.2051,4.2126,4.2186,4.2307,4.234,4.2409,4.2405,4.2471,4.2415,4.2408,4.2401,4.2395,4.24,4.2481,4.2483,4.2484,4.2485,0,4.17,4.1709,4.1775,4.1844,4.1898,4.1954,4.2007,4.2043,4.2068,4.212,4.2197,4.2244,4.2336,4.2408,4.2478,4.2509,4.25,4.2503,4.252,4.2515,4.2501,4.2505,4.2316,4.2497,4.2496,4.2495,4.2495,4.2494,4.1807,4.1864,4.1919,4.1991,4.2033,4.2082,4.2138,4.2168,4.2233,4.2309,4.2315,4.2397,4.2449,4.2541,4.2576,4.2639,4.262,4.2646,4.2652,4.2657,4.2659,4.2494,4.2652,4.2652,4.2652,4.2651,4.2651,0,4.1959,4.1993,4.2059,4.2133,4.2189,4.2178,4.2235,4.2282,4.2354,4.2404,4.2463,4.2549,4.2619,4.2658,4.2727,4.2769,4.2767,4.2787,4.2782,4.2788,4.2675,4.2651,4.2787,4.2787,4.2787,4.2787,4.2787,4.2787,4.2044,4.2139,4.2154,4.2269,4.2302,4.2382,4.2415,4.246,4.2499,4.2596,4.2654,4.2678,4.2723,4.2795,4.2857,4.2866,4.289,4.2912,4.2918,4.2811,4.2797,4.2783,4.2761,4.2918,4.2918,4.3026,4.3027,4.3028]},{"header":{"parameterUnit":"m.s-1","parameterCategory":1,"la1":30.2991,"la2":30.254,"lo1":-89.0895,"lo2":-89.0444,"dy":0.0017,"dx":0.0017,"nx":28,"ny":28,"refTime":"2024-06-27T03:00:00:Z","depth":0,"parameterNumber":3,"parameterNumberName":"V-component_of_WINDS"},"data":[0,0,0,0,0,0,0,0,0,0,0,0,0,0,0,0,0,0,0,0,0,0,0,0,0,0,0,0,0,0,0,0,0,0,0,0,0,0,0,0,0,0,0,0,0,0,0,0,0,0,0,0,0,0,0,0,0,0,2.6299,2.6299,0,2.6339,2.6339,2.634,2.6334,2.6333,2.6332,2.6332,2.6372,2.6373,2.6375,0,0,0,0,0,0,0,0,0,0,0,0,0,2.6214,2.6216,2.6299,2.6299,2.63,2.6339,2.6339,2.634,2.6334,2.6333,2.6332,2.6331,2.6371,2.6373,2.6375,0,0,0,0,0,0,0,0,0,0,0,0,0,2.6252,2.6216,2.6298,2.6301,2.6302,2.6339,2.6339,2.634,2.6334,2.6333,2.6332,2.6331,2.637,2.6373,2.6375,2.6411,0,0,2.6383,2.6384,0,0,0,0,0,0,0,0,2.625,2.6255,2.63,2.6301,2.6302,2.633,2.6324,2.6364,2.6334,2.6322,2.6332,2.6331,2.6359,2.6362,2.6372,2.6413,2.6415,2.6383,2.6385,2.6386,2.6387,0,0,0,0,0,0,0,2.6247,2.6253,2.6314,2.6301,2.6302,2.63,2.6304,2.6332,2.6345,2.6323,2.6322,2.6327,2.6359,2.6369,2.6373,2.6415,2.6383,2.6385,2.6387,2.6388,2.6487,2.6488,0,0,0,0,0,0,2.6244,2.6251,2.6313,2.6316,2.6273,2.6302,2.6307,2.6322,2.6345,2.6348,2.6328,2.6327,2.6365,2.637,2.6374,2.6416,2.6386,2.6388,2.639,2.6486,2.6487,2.6488,0,0,0,0,0,0,2.6242,2.625,2.6312,2.6283,2.6291,2.6305,2.6322,2.6323,2.6334,2.6349,2.6351,2.6337,2.6365,2.637,2.6402,2.6418,2.6389,2.6392,2.6484,2.6486,2.6488,2.6502,0,0,0,0,0,0,2.624,2.6249,2.6264,2.6284,2.6293,2.6339,2.6323,2.6325,2.6339,2.6337,2.6358,2.636,2.6364,2.6398,2.6404,2.6421,2.6394,2.6483,2.6485,2.6487,2.65,2.6504,2.6507,0,0,0,0,0,2.6237,2.6266,2.6264,2.6272,2.6311,2.634,2.6345,2.635,2.634,2.6354,2.6363,2.6359,2.6415,2.6401,2.6408,2.6426,2.6482,2.6484,2.6487,2.6499,2.6503,2.6507,0,0,0,0,0,0,2.6247,2.6269,2.6267,2.6304,2.632,2.6339,2.6357,2.6355,2.6375,2.6373,2.6378,2.6382,2.6414,2.6423,2.6407,2.6461,2.6447,2.6451,2.6454,2.6458,2.6462,2.6458,2.6396,0,0,0,0,0,2.6254,2.6277,2.6294,2.6325,2.6333,2.6344,2.6357,2.6359,2.6376,2.6383,2.6395,2.6411,2.6432,2.6446,2.6466,2.6502,2.6505,2.6517,2.6521,2.6524,2.6527,2.6545,2.655,2.6496,2.6496,2.6496,0,0,2.6268,2.6282,2.6296,2.6327,2.634,2.6362,2.635,2.6374,2.639,2.6386,2.6416,2.6426,2.6444,2.6477,2.6493,2.6486,2.6542,2.6527,2.6529,2.653,2.6548,2.6553,2.6557,2.6498,2.6498,2.6497,0,0,2.6304,2.6318,2.6344,2.6357,2.6377,2.6384,2.639,2.6409,2.6415,2.6446,2.6443,2.6462,2.6499,2.6511,2.6523,2.6563,2.6559,2.6569,2.6587,2.6605,2.6609,2.6613,2.6626,2.663,2.6572,2.6572,2.6572,0,2.6318,2.6352,2.6358,2.6382,2.6395,2.6393,2.6419,2.6431,2.6457,2.6465,2.6458,2.6503,2.6515,2.6551,2.656,2.657,2.6576,2.6566,2.6608,2.6612,2.6615,2.6628,2.6633,2.6573,2.6573,2.6573,2.6573,0,2.6368,2.6392,2.641,2.6435,2.645,2.6475,2.6484,2.6498,2.6499,2.6506,2.6537,2.6551,2.6574,2.6583,2.6584,2.6618,2.6613,2.6607,2.6593,2.6621,2.6633,2.6638,2.6575,2.6574,2.6574,2.6574,0,0,2.6412,2.6438,2.6445,2.6455,2.6477,2.6495,2.6519,2.6542,2.6553,2.6571,2.6591,2.6621,2.6615,2.6628,2.6631,2.6646,2.6675,2.6638,2.6638,2.6643,2.6712,2.6716,2.6721,2.6673,2.6674,2.6675,2.671,0,2.6449,2.6493,2.6498,2.6536,2.6557,2.6555,2.6576,2.6591,2.6598,2.6616,2.6624,2.6646,2.6637,2.6644,2.666,2.6668,2.6689,2.6666,2.6691,2.6691,2.6685,2.6728,2.6732,2.6765,2.6715,2.6716,2.6716,0,2.6498,2.6517,2.6557,2.6574,2.6583,2.6602,2.6622,2.664,2.6657,2.6661,2.6675,2.6675,2.6699,2.6685,2.6718,2.6702,2.6713,2.6718,2.672,2.6721,2.6705,2.6729,2.6775,2.678,2.6724,2.6723,2.6723,0,2.6524,2.6559,2.6588,2.6597,2.6618,2.6631,2.664,2.6656,2.6669,2.6686,2.6694,2.6714,2.6725,2.674,2.6746,2.6735,2.6778,2.6764,2.6781,2.6781,2.6789,2.6789,2.6836,2.6798,2.6798,2.6798,2.6798,0,2.6564,2.6589,2.6599,2.6617,2.6644,2.6649,2.6675,2.6684,2.6698,2.6716,2.6716,2.6733,2.6739,2.6757,2.6762,2.6787,2.6793,2.6796,2.6797,2.6795,2.6795,2.6802,2.6799,2.6799,2.6799,2.6799,2.6798,0,2.6598,2.6606,2.6636,2.6654,2.6659,2.6678,2.6692,2.6708,2.6715,2.6738,2.6744,2.6755,2.6776,2.6783,2.6809,2.6812,2.6841,2.6841,2.6836,2.6835,2.6851,2.6849,2.6904,2.6911,2.6869,2.687,2.687,0,2.6622,2.6641,2.666,2.6672,2.6682,2.6702,2.6715,2.672,2.6734,2.6753,2.6767,2.6788,2.6805,2.6838,2.6848,2.6867,2.6866,2.6884,2.6869,2.6867,2.6865,2.6863,2.6865,2.6887,2.6887,2.6888,2.6888,0,2.6664,2.6667,2.6686,2.6706,2.6721,2.6737,2.6752,2.6762,2.677,2.6784,2.6806,2.6819,2.6845,2.6865,2.6885,2.6894,2.6892,2.6893,2.6897,2.6896,2.6892,2.6893,2.6842,2.6891,2.6891,2.6891,2.689,2.689,2.6693,2.6709,2.6725,2.6745,2.6757,2.6771,2.6787,2.6796,2.6814,2.6835,2.6838,2.686,2.6875,2.6901,2.6911,2.6929,2.6924,2.6931,2.6932,2.6934,2.6934,2.689,2.6932,2.6932,2.6932,2.6932,2.6932,0,2.6734,2.6744,2.6763,2.6784,2.6799,2.6797,2.6813,2.6826,2.6846,2.6861,2.6877,2.6901,2.6921,2.6932,2.6951,2.6963,2.6963,2.6968,2.6967,2.6968,2.6938,2.6932,2.6968,2.6968,2.6968,2.6968,2.6968,2.6968,2.6757,2.6784,2.6788,2.682,2.683,2.6852,2.6862,2.6874,2.6885,2.6912,2.6928,2.6936,2.6948,2.6969,2.6986,2.6989,2.6995,2.7001,2.7003,2.6974,2.6971,2.6967,2.6961,2.7003,2.7003,2.7032,2.7032,2.7032]}]]